Location: Feydey
(46.3431°N, 7.0106°E)
Time: 15:21:59
(UTC+00:00)

Cosmos 2058 Rocket - Pass Details

Date: 20 June 2021
Orbit: 609 x 640 km, 82.5° (Epoch: 02 August)

Event Time Altitude Azimuth Distance (km) Brightness Sun altitude
Rises 22:56:36 0° 344° (NNW) 2,926 8.1 -19.7°
Reaches altitude 10° 22:58:57 10° 337° (NNW) 2,009 6.8 -19.8°
Maximum altitude 23:03:07 41° 268° (W) 905 3.9 -19.9°
Enters shadow 23:04:25 32° 227° (SW) 1,061 3.9 -19.9°
